Current weather by "City, St" or "zip code"  
 

Current Conditions: Mid-America Industrial Airport, OK

Mostly Cloudy


57.0 F

Last Updated on Feb 27 2021, 11:50 pm CST
Humidity: 94%
Wind Speed: SW 4.6 mph
Barometer 29.78 in
Dewpoint: 55.4 F
Visibility: 10.00 mi
Precip: --
Heat Index: NA
Wind Chill: 57 F
Current conditions at:

Mid-America Industrial Airport, OK (KH71)

Lat: 36.22538 Lon: 95.33005

Local Radar Image active severe weather and emergency alerts image image weather storm and storm spotter reports image weather observation monitoring service image
Local
Radar
Active
Alerts
Storm Reports Obs
Monitoring

Sign-up For Email & Text Message Weather Alert Notification Services



Advertise Here

Observation History for Mid-America Industrial Airport, OK


Time Wind
(mph)
Vis
(mi)
Weather Precip (in) Temperature (F) Relative
Humidity
Wind
Chill
(F)
Heat
Index
(F)
Pressure
Air Dwpt altimeter
(in)
sea level
(mb)
Rmks
11:50 pm CST SW 4.6 10.00 Mostly Cloudy -- 57.0 55.4 94% 57 NA 29.78 M
10:50 pm CST S 8.1 G 15.0 10.00 Overcast -- 57.0 53.6 88% 55 NA 29.78 M
9:50 pm CST S 9.2 G 16.1 10.00 Overcast -- 57.0 53.6 88% 55 NA 29.78 M
8:50 pm CST S 11.5 10.00 Overcast -- 55.0 53.6 94% 52 NA 29.78 M
7:50 pm CST S 12.7 G 19.6 9.00 Overcast -- 54.0 51.8 94% 50 NA 29.80 M
7:30 pm CST SE 11.5 10.00 Overcast -- 54.0 51.8 94% 51 NA 29.80 M
6:50 pm CST SE 12.7 10.00 Overcast -- 55.0 50.0 82% 52 NA 29.80 M
5:50 pm CST SE 12.7 10.00 Overcast -- 57.0 48.2 72% 54 NA 29.80 M
4:50 pm CST SE 11.5 10.00 Overcast -- 59.0 44.6 59% 57 NA 29.80 M
3:50 pm CST S 6.9 10.00 Overcast -- 59.0 41.0 51% 58 NA 29.82 M
2:50 pm CST S 12.7 10.00 Overcast -- 59.0 39.2 48% 57 NA 29.83 M
1:50 pm CST S 16.1 G 25.3 10.00 Overcast -- 63.0 37.4 39% 61 NA 29.84 M
12:50 pm CST SE 13.8 10.00 Fair -- 63.0 41.0 45% 61 NA 29.88 M
11:50 am CST S 12.7 10.00 Fair -- 61.0 42.8 52% 59 NA 29.93 M
10:50 am CST S 11.5 10.00 Fair -- 57.0 46.4 67% 54 NA 29.95 M
9:50 am CST SE 6.9 10.00 Fair -- 52.0 46.4 82% 50 NA 29.97 M
9:30 am CST SE 9.2 10.00 Fair -- 48.0 46.4 94% 44 NA 29.98 M
8:50 am CST SE 5.8 7.00 Mostly Cloudy -- 43.0 42.8 100% 39 NA 29.99 M
8:30 am CST S 5.8 0.15 Fog -- 41.0 41.0 100% 37 NA 29.99 M
7:50 am CST N 0.0 0.15 Fog -- 32.0 32.0 100% NA NA 29.97 M
7:30 am CST N 0.0 0.15 Fog -- 32.0 32.0 100% NA NA 29.98 M
6:50 am CST N 0.0 0.15 Freezing Fog -- 30.0 30.2 100% NA NA 29.97 M
5:50 am CST N 0.0 0.25 Freezing Fog -- 30.0 30.2 100% NA NA 29.98 M
4:50 am CST N 0.0 0.15 Freezing Fog -- 30.0 30.2 100% NA NA 29.95 M

Regional Weather Observation


Mid-America Industrial Airport, OK (KH71)

Mostly Cloudy
57.0 F

Tulsa, Tulsa International Airport, OK (KTUL)

Overcast
57.0 F

Tulsa - Jones Jr. Airport, OK (KRVS)

Overcast
57.0 F

Bartlesville, Bartlesville Municipal Airport, OK (KBVO)

Fog/Mist
54.0 F

Sand Springs, William R Pogue Municipal Airport, OK (KOWP)

NULL
59.0 F

Tahlequah, Tahlequah Municipal Airport, OK (KTQH)

Fair
54.0 F

Advertise Here


Advertise Here